Погода в Норфолке

США     36°50′46″N   76°17′00″W
темп.,
°C
ветер,
м/с
пор.,
м/с
влажн.,
%
обл.,
%
осадки,
мм/ч
давл.,
гПа
погр.,
м
16 июня, ср
ср1623:00+21зюз11620 0.0 101219
02:00+19зсз22680 0.0 101151
05:00+19сз24731 0.0 1011100
08:00+22сз35612 0.0 1013457
11:00+25сз35450 0.0 10131382
14:00+28сз353723 0.0 10132526
17:00+27ссв134097 0.0 10131530
20:00+22вюв246457 0.0 1014211
17 июня, чт
чт1723:00+19вюв247399 0.0 1015120
02:00+19юв24795 0.0 101486
05:00+18св227980 0.4 101440
08:00+22ссв36685 0.5 1015491
11:00+25ссв54498 0.0 10161461
14:00+24ссв545114 0.1 10161210
17:00+24ссв44474 0.1 10161166
20:00+21всв24655 0.1 1018228
18 июня, пт
пт1823:00+18вюв237931 0.0 101970
02:00+16ююв128214 0.0 101934
05:00+16з11830 0.0 102012
08:00+20з11660 0.0 1021173
11:00+26ююз223825 0.0 10191203
14:00+29юз353013 0.0 10182060
17:00+29зюз463522 0.0 10162136
20:00+22ююв4115979 0.0 1016297
19 июня, сб
сб1923:00+21ю5145721 0.0 1017509
02:00+21ююз6166080 0.0 1015598
05:00+20ююз515755 0.0 1014526
08:00+23юз6137564 0.0 1013492
11:00+31з5848100 0.0 10131011
14:00+33сз684095 0.0 10131987
17:00+34зюз483766 0.0 10101360
20:00+30юз4115391 0.0 1010542
20 июня, вс
вс2023:00+28юз51554100 0.0 1010641
02:00+27зюз51454100 0.0 1011803
05:00+25зюз41264100 0.1 1011583
08:00+25зюз41070100 0.2 1012609
11:00+28зюз6760100 0.3 1013913
14:00+32юз6748100 0.3 10111627
17:00+30юз7954100 0.0 10111479
20:00+26юз61270100 0.0 1012709